This demonstration page uses our WeatherBlox Daily Observations layout. Learn more.

Left ArrowRight Arrow

30.00354, -91.81873

Hourly Observations for September 24, 2022

Temp ( °F °C ) Dew Point ( °F °C ) Humidity (%) Winds ( mph kmh ) Pressure ( in mb ) Visibility ( mi km ) Precip ( " mm )
12:53 am 00:53 Clear 75 23.9 71 21.7 88 88 Calm 30.01 1016 10 16 0.00 0.00
1:53 am 01:53 Clear 77 25 72 22.2 84 84 Calm 30.01 1016 10 16 0.00 0.00
2:53 am 02:53 Clear with Mist and Fog 73 22.8 71 21.7 94 94 Calm 30.01 1016 6 10 0.00 0.00
3:53 am 03:53 Clear 74 23.3 71 21.7 91 91 Calm 30.00 1016 9 14 0.00 0.00
4:53 am 04:53 Clear 74 23.3 70 21.1 87 87 Calm 30.00 1016 9 14 0.00 0.00
5:53 am 05:53 Clear with Mist and Fog 72 22.2 70 21.1 93 93 Calm 30.01 1016 5 8 0.00 0.00
6:53 am 06:53 Clear with Mist and Fog 72 22.2 70 21.1 93 93 Calm 30.02 1017 4 6 0.00 0.00
7:53 am 07:53 Sunny 77 25 73 22.8 88 88 Calm 30.03 1017 8 13 0.00 0.00
8:53 am 08:53 Sunny 82 27.8 73 22.8 74 74 Calm 30.03 1017 10 16 0.00 0.00
9:53 am 09:53 Sunny 85 29.4 74 23.3 70 70 Calm 30.04 1017 10 16 0.00 0.00
10:53 am 10:53 Sunny 89 31.7 74 23.3 61 61 VRB 5 7 30.04 1017 10 16 0.00 0.00
11:53 am 11:53 Sunny 91 32.8 72 22.2 54 54 Calm 30.03 1017 10 16 0.00 0.00
12:53 pm 12:53 Mostly Sunny 92 33.3 71 21.7 51 51 W 3 6 30.01 1016 10 16 0.00 0.00
1:53 pm 13:53 Partly Cloudy 95 35 69 20.6 43 43 VRB 3 6 29.99 1016 10 16 0.00 0.00
2:53 pm 14:53 Mostly Sunny 94 34.4 68 20 43 43 NNW 6 9 29.97 1015 10 16 0.00 0.00
3:53 pm 15:53 Mostly Sunny 94 34.4 64 17.8 37 37 NW 5 7 29.95 1014 10 16 0.00 0.00
4:53 pm 16:53 Sunny 95 35 66 18.9 39 39 NNE 3 6 29.93 1014 10 16 0.00 0.00
5:53 pm 17:53 Mostly Sunny 92 33.3 66 18.9 43 43 ESE 8 13 29.93 1014 10 16 0.00 0.00
6:53 pm 18:53 Mostly Sunny 86 30 70 21.1 59 59 SSE 6 9 29.94 1014 10 16 0.00 0.00
7:53 pm 19:53 Clear 80 26.7 71 21.7 74 74 SW 6 9 29.95 1014 10 16 0.00 0.00
8:53 pm 20:53 Clear 80 26.7 71 21.7 74 74 Calm 29.96 1014 10 16 0.00 0.00
9:53 pm 21:53 Clear 79 26.1 73 22.8 82 82 WSW 3 6 29.96 1015 10 16 0.00 0.00
10:53 pm 22:53 Clear 78 25.6 73 22.8 85 85 Calm 29.96 1015 10 16 0.00 0.00
11:53 pm 23:53 Clear 78 25.6 72 22.2 82 82 Calm 29.95 1014 10 16 0.00 0.00

Powered by AerisWeather